Flag for Laos Weather past 2 weeks in Vientiane, Laos

77 °F


Feels Like: 78 °F
Forecast: 75 / 87 °F
Wind: 2 mph from Southwest

Location: Vientiane Airport

Current Time: Oct 8, 2015 at 2:34:02 AM

Latest Report: Oct 7, 2015 at 11:00 PM

Visibility: 2 mi

Pressure: 29.89 "Hg

Humidity: 94%

Dew point: 75 °F

Location of VientianeLocation

Historic Weather in Vientiane — Graph


Vientiane temperature yesterday

Maximum temperature yesterday: 86 °F (at 11:00 AM)
Minimum temperature yesterday: 77 °F (at 6:00 AM)
Average temperature yesterday: 80 °F

Past Weeks' High & Low Weather Summary

High95 °F (Sep 28, 4:00 PM)100% (Sep 23, 6:30 AM)29.95 "Hg (Sep 23, 6:30 AM)
Low73 °F (Oct 2, 6:00 AM)56% (Sep 25, 5:00 PM)29.59 "Hg (Sep 25, 4:00 PM)
Average84 °F79%29.79 "Hg
* Reported Sep 23 6:30 AM — Oct 7 11:00 PM, Vientiane, Weather by CustomWeather, © 2015

Note: Actual official high and low records may vary slightly from our data, if they occured in-between our weather recording intervals... More about our weather records


Vientiane weather history for previous 24 hours

Time TempWeatherWind HumidityBarometerVisibility
11:00 PM
Wed, Oct 7
77 °FFog.2 mph94%29.89 "Hg2 mi
10:30 PM77 °FFog.2 mph94%29.89 "Hg2 mi
10:00 PM77 °FFog.2 mph94%29.89 "Hg2 mi
9:00 PM79 °FFog.2 mph89%29.89 "Hg2 mi
8:30 PM77 °FFog.2 mph94%29.86 "Hg2 mi
7:00 PM81 °FFog.2 mph84%29.83 "Hg2 mi
6:00 PM81 °FFog.2 mph89%29.80 "Hg3 mi
5:30 PM81 °FScattered clouds.2 mph89%29.80 "HgN/A
5:00 PM81 °FScattered clouds.2 mph89%29.80 "HgN/A
4:30 PM81 °FBroken clouds.2 mph89%29.77 "Hg5 mi
4:00 PM81 °FBroken clouds.2 mph89%29.77 "Hg5 mi
3:30 PM81 °FBroken clouds.2 mph84%29.80 "Hg5 mi
3:00 PM81 °FBroken clouds.2 mph84%29.80 "Hg5 mi
2:30 PM79 °FDrizzle. More clouds than sun.2 mph89%29.83 "Hg4 mi
2:00 PM79 °FDrizzle. More clouds than sun.2 mph89%29.83 "Hg4 mi
1:30 PM79 °FDrizzle. More clouds than sun.5 mph94%29.86 "Hg4 mi
1:00 PM79 °FDrizzle. More clouds than sun.5 mph94%29.86 "Hg4 mi
12:00 PM79 °FThunderstorms. Overcast.5 mph94%29.89 "Hg2 mi
11:30 AM84 °FThunderstorms. More clouds than sun.12 mph84%29.89 "Hg1 mi
11:00 AM86 °FRain. Broken clouds.2 mph75%29.89 "Hg4 mi
10:30 AM84 °FPartly sunny.2 mph79%29.92 "Hg4 mi
10:00 AM84 °FPartly sunny.2 mph79%29.92 "Hg4 mi
9:30 AM81 °FFog.2 mph89%29.92 "Hg3 mi
9:00 AM79 °FFog.2 mph94%29.92 "Hg3 mi
8:30 AM81 °FFog.2 mph89%29.89 "Hg3 mi
8:00 AM79 °FFog.2 mph94%29.89 "Hg3 mi
7:30 AM77 °FFog.5 mph100%29.86 "Hg2 mi
7:00 AM77 °FFog.5 mph100%29.86 "Hg2 mi
6:00 AM77 °FFog.2 mph94%29.83 "Hg2 mi
Weather by CustomWeather, © 2015

See weather overviewHow to use our weather pages